Location: Eckley Miners' Village
(40.9930°N, 75.8630°W)
Time: 10:38:29
(UTC-04:00)

Vanguard 1 Rocket - Pass Details

Date: 09 March 2026
Orbit: 654 x 4213 km, 34.3° (Epoch: 11 April)

Event Time Altitude Azimuth Distance (km) Brightness Sun altitude
Rises 08:55:14 0° 224° (SW) 3,153 9.9 15.8°
Reaches altitude 10° 08:58:11 10° 207° (SSW) 2,087 9.3 16.3°
Maximum altitude 09:01:31 20° 158° (SSE) 1,483 9.3 16.9°
Drops below altitude 10° 09:04:59 10° 109° (ESE) 2,169 12.0 17.5°
Sets 09:08:07 0° 93° (E) 3,322 11.6 18.0°
